sat.trackr.live / text

‹ back to catalog

STARLINK-35120

NORAD 65659 · 2025-211H

PAYLOAD ACTIVE UNKNOWN

§ Identity

Operator
Country
US
Launch date
2025-09-19
Launch site
AFWTR
Launch vehicle
Mass (kg)
RCS (m²)

Purposes: comms

External: N2YO · Heavens-Above · Gunter

§ Orbital elements

Epoch: 2026-05-25T01:39:26.706240Z

Period
95.64 min
Inclination
97.4457°
Eccentricity
0.0001228
Mean motion
15.05656037 rev/d
Perigee alt
548.6 km
Apogee alt
550.3 km
Semi-major
6,927.6 km
B*
4.4343e-4
RAAN
188.9660°
Arg perigee
145.0485°
Mean anomaly
215.0823°
Rev number
3,853

§ Raw data

STARLINK-351201 65659U 25211H   26145.06905910  .00006346  00000+0  44343-3 0  99992 65659  97.4457 188.9660 0001228 145.0485 215.0823 15.05656037 38535

JSON: /api/v1/satellites/65659 · /tle

For live sub-satellite position, see the globe view (requires WebGL).

§ Visibility from observer

Set your observer location to see the next 7 days of passes ≥ 10°. The values pass through the URL so the page stays shareable.

No JS? Fill the form by hand. The geolocation button needs JavaScript.